This demonstration page uses our WeatherBlox Daily Observations layout. Learn more.

Left ArrowRight Arrow

39.29038, -76.61219

Hourly Observations for December 5, 2020

Temp ( °F °C ) Dew Point ( °F °C ) Humidity (%) Winds ( mph kmh ) Pressure ( in mb ) Visibility ( mi km ) Precip ( " mm )
12:26 am 00:26 Cloudy with Light Rain 46 7.8 44 6.7 93 93 N 7 11 29.79 1009 6 10 0.01 0.25
12:54 am 00:54 Cloudy with Light Rain 46 7.8 43 6.1 89 89 NNE 6 9 29.78 1008 8 13 0.02 0.51
1:17 am 01:17 Cloudy with Light Rain 46 7.8 44 6.7 93 93 NNE 5 7 29.78 1009 5 8 0.02 0.51
1:41 am 01:41 Cloudy with Light Rain 46 7.8 44 6.7 93 93 ENE 3 6 29.76 1008 4 6 0.05 1.27
1:54 am 01:54 Cloudy with Rain 46 7.8 44 6.7 93 93 N 3 6 29.76 1008 3 5 0.09 2.29
2:18 am 02:18 Cloudy with Light Rain 46 7.8 43 6.1 89 89 N 6 9 29.74 1007 4 6 0.06 1.52
2:54 am 02:54 Cloudy with Light Rain 46 7.8 43 6.1 89 89 N 6 9 29.72 1006 4 6 0.15 3.81
3:54 am 03:54 Cloudy with Light Rain 45 7.2 42 5.6 90 90 NNW 8 13 29.71 1006 5 8 0.14 3.56
4:33 am 04:33 Cloudy with Light Rain 45 7.2 42 5.6 90 90 NNW 7 11 29.73 1007 6 10 0.07 1.78
4:54 am 04:54 Cloudy with Light Rain 45 7.2 42 5.6 90 90 NNW 8 13 29.72 1007 6 10 0.12 3.05
5:25 am 05:25 Cloudy with Light Rain 45 7.2 41 5 86 86 NNW 10 17 29.72 1006 9 14 0.06 1.52
5:54 am 05:54 Cloudy with Light Rain 45 7.2 41 5 86 86 NNW 10 17 29.71 1006 10 16 0.08 2.03
6:16 am 06:16 Cloudy 45 7.2 41 5 86 86 NW 10 17 29.74 1007 10 16 0.01 0.25
6:54 am 06:54 Cloudy 45 7.2 40 4.4 83 83 NW 16 26 29.74 1007 10 16 0.01 0.25
7:33 am 07:33 Mostly Cloudy 45 7.2 38 3.3 77 77 NW 15 24 29.77 1008 10 16 0.00 0.00
7:54 am 07:54 Mostly Cloudy 44 6.7 38 3.3 79 79 NW 12 19 29.77 1008 10 16 0.00 0.00
8:54 am 08:54 Mostly Cloudy 46 7.8 37 2.8 71 71 NW 14 22 29.79 1009 10 16 0.00 0.00
9:54 am 09:54 Mostly Cloudy 47 8.3 37 2.8 69 69 NW 18 30 29.81 1010 10 16 0.00 0.00
10:54 am 10:54 Mostly Cloudy 49 9.4 36 2.2 61 61 WNW 15 24 29.82 1010 10 16 0.00 0.00
11:54 am 11:54 Mostly Cloudy 48 8.9 34 1.1 58 58 WNW 18 30 29.81 1010 10 16 0.00 0.00
12:54 pm 12:54 Mostly Cloudy 48 8.9 32 0 54 54 WNW 18 30 29.81 1010 10 16 0.00 0.00
1:54 pm 13:54 Mostly Cloudy 46 7.8 29 -1.7 51 51 NW 14 22 29.83 1010 10 16 0.00 0.00
2:54 pm 14:54 Mostly Cloudy 46 7.8 25 -3.9 44 44 NW 15 24 29.84 1011 10 16 0.00 0.00
3:54 pm 15:54 Cloudy 45 7.2 25 -3.9 46 46 WNW 16 26 29.86 1011 10 16 0.00 0.00
4:54 pm 16:54 Cloudy 45 7.2 26 -3.3 48 48 WNW 9 15 29.89 1012 10 16 0.00 0.00
5:54 pm 17:54 Cloudy 45 7.2 26 -3.3 48 48 WNW 10 17 29.91 1013 10 16 0.00 0.00
6:54 pm 18:54 Cloudy 44 6.7 26 -3.3 49 49 WNW 12 19 29.92 1013 10 16 0.00 0.00
7:54 pm 19:54 Mostly Cloudy 44 6.7 25 -3.9 47 47 NW 8 13 29.93 1013 10 16 0.00 0.00
8:54 pm 20:54 Cloudy 44 6.7 23 -5 43 43 NW 12 19 29.93 1013 10 16 0.00 0.00
9:54 pm 21:54 Mostly Cloudy 42 5.6 21 -6.1 43 43 NW 7 11 29.93 1014 10 16 0.00 0.00
10:54 pm 22:54 Mostly Cloudy 40 4.4 22 -5.6 49 49 WNW 10 17 29.93 1014 10 16 0.00 0.00
11:54 pm 23:54 Mostly Cloudy 41 5 23 -5 49 49 WNW 8 13 29.94 1014 10 16 0.00 0.00

Powered by AerisWeather